Location: Erfurt
(50.9688°N, 11.0193°E)
Time: 11:31:08
(UTC+02:00)

ISS - Visible Passes

Search period start: 25 September 2017 00:00
Search period end: 05 October 2017 00:00
Orbit: 401 x 407 km, 51.6° (Epoch: 25 September)

Date Brightness Start Highest point End Pass type
(mag) Time Alt. Az. Time Alt. Az. Time Alt. Az.
26 Sep -2.1 20:27:54 10° S 20:29:50 18° SSE 20:29:50 18° SSE visible
27 Sep -1.6 19:36:52 10° SSE 19:38:08 12° SE 19:39:24 10° ESE visible
27 Sep -2.3 21:10:50 10° SW 21:12:39 28° SW 21:12:39 28° SW visible
28 Sep -3.0 20:18:45 10° SW 20:21:43 32° SSE 20:22:38 27° ESE visible
28 Sep -0.9 21:54:42 10° W 21:55:17 14° W 21:55:17 14° W visible
29 Sep -3.5 21:02:20 10° WSW 21:05:07 59° SW 21:05:07 59° SW visible
30 Sep -3.6 20:10:01 10° SW 20:13:14 54° SSE 20:14:52 25° E visible
30 Sep -1.2 21:46:23 10° W 21:47:31 20° W 21:47:31 20° W visible
01 Oct -3.9 20:53:56 10° W 20:57:10 84° NW 20:57:10 84° NW visible
02 Oct -3.9 20:01:29 10° WSW 20:04:46 80° SSE 20:06:45 22° E visible
02 Oct -1.4 21:38:01 10° W 21:39:24 23° W 21:39:24 23° W visible
03 Oct -3.9 20:45:32 10° W 20:48:49 77° N 20:48:57 75° NNE visible
04 Oct -3.8 19:53:02 10° W 19:56:19 81° N 19:58:28 20° E visible
04 Oct -1.6 21:29:34 10° W 21:31:06 25° W 21:31:06 25° W visible
